Tracking 29487 objects as of 12-Sep-2024
HD Live streaming from Space Station
objects crossing your sky now

FENGYUN 1C DEB

Track FENGYUN 1C DEB now!
10-day predictions


NORAD ID: 33745
Int'l Code: 1999-025DJJ
Perigee: 797.9 km
Apogee: 882.9 km
Inclination: 99.1 °
Period: 101.6 minutes
Semi major axis: 7211 km
RCS: 0.0047 m2 (small)
Launch date: May 10, 1999
Source: People's Republic of China (PRC)
Launch site: Taiyaun Space Center, China (TSC)

Note: This is SATELLITE DEBRIS
Your satellite tracking list
Your tracking list is empty




NASA's NSSDC Master Catalog

Two Line Element Set (TLE):
1 33745U 99025DJJ 24255.49014276  .00009688  00000-0  46965-2 0  9991
2 33745  99.1451 271.9576 0058891 127.9073 232.7445 14.17668780595105
Source of the keplerian elements: AFSPC